[[{"header":{"parameterUnit":"m.s-1","parameterCategory":2,"la1":30.2991,"la2":30.254,"lo1":-89.0895,"lo2":-89.0444,"dy":0.0017,"dx":0.0017,"nx":28,"ny":28,"refTime":"2023-03-16T21:00:00:Z","depth":"0","parameterNumber":2,"parameterNumberName":"U-component_of_CURRENTS"},"data":[0,0,0,0,0,0,0,0,0,0,0,0,0,0,0,0,0,0,0,0,0,0,0,0,0,0,0,0,0,0,0,0,0,0,0,0,0,0,0,0,0,0,0,0,0,0,0,0,0,0,0,0,0,0,0,0,0,0,0.2677,0.2678,0,0.2657,0.2656,0.2655,0.2601,0.26,0.26,0.26,0.2535,0.2534,0.2533,0,0,0,0,0,0,0,0,0,0,0,0,0,0.2658,0.2658,0.2677,0.2678,0.2678,0.2657,0.2656,0.2655,0.2601,0.26,0.26,0.2599,0.2536,0.2534,0.2533,0,0,0,0,0,0,0,0,0,0,0,0,0,0.2647,0.2658,0.2677,0.2655,0.2653,0.2657,0.2656,0.2655,0.2601,0.26,0.26,0.2599,0.2536,0.2534,0.2532,0.2533,0,0,0.2526,0.2525,0,0,0,0,0,0,0,0,0.2648,0.2647,0.2658,0.2656,0.2655,0.2638,0.2626,0.2615,0.2601,0.2612,0.26,0.2599,0.2571,0.2567,0.2553,0.253,0.2527,0.2526,0.2525,0.2524,0.2524,0,0,0,0,0,0,0,0.2648,0.2647,0.2661,0.2658,0.2657,0.2643,0.2639,0.2623,0.2588,0.2611,0.2609,0.262,0.2569,0.2555,0.2551,0.2526,0.2526,0.2524,0.2523,0.2522,0.2578,0.258,0,0,0,0,0,0,0.2669,0.2648,0.2662,0.2661,0.2659,0.2644,0.264,0.2637,0.2589,0.2584,0.2621,0.2618,0.2559,0.2553,0.2549,0.2616,0.2524,0.2522,0.2521,0.2575,0.2578,0.2581,0,0,0,0,0,0,0.2668,0.267,0.2663,0.2661,0.2661,0.2646,0.2643,0.2637,0.2638,0.2599,0.2591,0.263,0.2558,0.2551,0.2558,0.261,0.2521,0.252,0.2572,0.2576,0.258,0.2706,0,0,0,0,0,0,0.2667,0.2669,0.2676,0.2663,0.2662,0.2684,0.2644,0.2638,0.2649,0.2645,0.2604,0.2596,0.2557,0.2562,0.2556,0.2606,0.2518,0.2568,0.2574,0.2578,0.2698,0.2714,0.2727,0,0,0,0,0,0.2666,0.2687,0.2676,0.2679,0.267,0.2686,0.2684,0.2665,0.2651,0.2661,0.2638,0.2598,0.259,0.2562,0.2555,0.2605,0.2566,0.2572,0.2578,0.2692,0.2711,0.2726,0,0,0,0,0,0,0.2689,0.2683,0.2671,0.2689,0.2696,0.268,0.2691,0.2682,0.2671,0.2665,0.2621,0.2613,0.265,0.2609,0.258,0.2639,0.2576,0.2581,0.2666,0.2683,0.2697,0.2698,0.2516,0,0,0,0,0,0.2698,0.2704,0.2703,0.272,0.2724,0.271,0.2716,0.2706,0.2697,0.2691,0.2662,0.2647,0.2668,0.2659,0.2657,0.2673,0.2681,0.2707,0.2721,0.2733,0.2732,0.2831,0.2854,0.2601,0.2601,0.2601,0,0,0.2713,0.2713,0.2716,0.2725,0.272,0.2739,0.2709,0.2727,0.275,0.2687,0.2699,0.2699,0.2688,0.2721,0.2733,0.269,0.2808,0.2741,0.2751,0.2743,0.284,0.2864,0.2886,0.2605,0.2604,0.2603,0,0,0.274,0.2744,0.275,0.2763,0.2774,0.2773,0.2788,0.2779,0.2782,0.2801,0.2785,0.2819,0.2802,0.2821,0.2829,0.2921,0.2894,0.2919,0.2974,0.3071,0.3093,0.3112,0.3148,0.317,0.291,0.2911,0.2911,0,0.2755,0.2765,0.276,0.2777,0.2803,0.2796,0.2825,0.2833,0.283,0.2851,0.2821,0.2869,0.2861,0.2936,0.2967,0.2956,0.298,0.2909,0.3091,0.311,0.3128,0.316,0.3183,0.2917,0.2917,0.2916,0.2915,0,0.2775,0.2798,0.2813,0.2827,0.2857,0.2886,0.2907,0.293,0.2937,0.2945,0.3014,0.3009,0.3038,0.3056,0.3033,0.3157,0.3124,0.3114,0.3049,0.3162,0.3188,0.3209,0.2927,0.2925,0.2923,0.2921,0,0,0.2757,0.2814,0.2816,0.2848,0.2891,0.2919,0.2977,0.3031,0.3081,0.3085,0.3155,0.3201,0.3196,0.3206,0.32,0.3265,0.3414,0.3236,0.3238,0.3271,0.3594,0.3393,0.3395,0.3443,0.3447,0.3451,0.356,0,0.2769,0.2823,0.2849,0.2919,0.2956,0.2998,0.3056,0.3111,0.3153,0.3213,0.3246,0.3304,0.3257,0.3285,0.3351,0.3411,0.3475,0.3382,0.3478,0.3479,0.3289,0.3415,0.3174,0.3236,0.358,0.3584,0.3586,0,0.2762,0.2809,0.2878,0.2982,0.3001,0.3046,0.3159,0.3209,0.3303,0.3337,0.3399,0.3417,0.3514,0.3461,0.3608,0.3551,0.3581,0.3609,0.3614,0.3392,0.3317,0.3181,0.326,0.3196,0.3617,0.3615,0.3612,0,0.2745,0.2831,0.2896,0.2929,0.3035,0.3087,0.3145,0.3244,0.3311,0.3421,0.3483,0.3573,0.3635,0.3709,0.3731,0.3703,0.3872,0.385,0.369,0.3674,0.3465,0.3422,0.3488,0.3967,0.3967,0.3966,0.3966,0,0.2745,0.2794,0.2895,0.2932,0.303,0.3095,0.3205,0.3274,0.3386,0.3473,0.3539,0.3626,0.3709,0.3788,0.38,0.3789,0.3937,0.3717,0.3706,0.3497,0.3457,0.3382,0.3355,0.397,0.397,0.3969,0.3968,0,0.2712,0.2771,0.2861,0.2982,0.3024,0.3094,0.3237,0.3321,0.3414,0.3537,0.3578,0.3715,0.3797,0.3826,0.3945,0.3862,0.3741,0.3838,0.354,0.349,0.3219,0.3204,0.3032,0.2974,0.3691,0.3687,0.3684,0,0.269,0.2734,0.2888,0.296,0.3018,0.3128,0.3214,0.3325,0.3409,0.358,0.364,0.3753,0.3802,0.3853,0.3725,0.3675,0.3612,0.3417,0.331,0.3179,0.3162,0.3004,0.2961,0.31,0.3092,0.3086,0.3081,0,0.2665,0.2729,0.282,0.2985,0.3089,0.3186,0.33,0.3355,0.3478,0.3559,0.3655,0.3708,0.3689,0.3508,0.3396,0.334,0.3186,0.3275,0.3264,0.2794,0.2509,0.2454,0.3029,0.3023,0.3028,0.3033,0.3036,0.3038,0.2646,0.2728,0.2877,0.3027,0.3134,0.3214,0.3232,0.3324,0.3398,0.3398,0.3546,0.3462,0.3316,0.3103,0.3032,0.2703,0.2771,0.2569,0.2594,0.247,0.23,0.2693,0.2586,0.2589,0.2592,0.2594,0.2596,0,0.2628,0.2758,0.2914,0.3063,0.3139,0.3204,0.3269,0.321,0.3196,0.3182,0.3166,0.2918,0.2718,0.2567,0.2228,0.2059,0.1969,0.2004,0.1803,0.1832,0.2301,0.2162,0.1806,0.1807,0.1807,0.1807,0.1807,0.1807,0.2634,0.2772,0.2889,0.3027,0.3101,0.3075,0.306,0.2943,0.2863,0.2618,0.2394,0.2331,0.2228,0.1942,0.1694,0.1653,0.1566,0.1335,0.1502,0.1904,0.1961,0.2016,0.1883,0.1475,0.1474,0.0887,0.0883,0.088]},{"header":{"parameterUnit":"m.s-1","parameterCategory":2,"la1":30.2991,"la2":30.254,"lo1":-89.0895,"lo2":-89.0444,"dy":0.0017,"dx":0.0017,"nx":28,"ny":28,"refTime":"2023-03-16T21:00:00:Z","depth":"0","parameterNumber":3,"parameterNumberName":"V-component_of_CURRENTS"},"data":[0,0,0,0,0,0,0,0,0,0,0,0,0,0,0,0,0,0,0,0,0,0,0,0,0,0,0,0,0,0,0,0,0,0,0,0,0,0,0,0,0,0,0,0,0,0,0,0,0,0,0,0,0,0,0,0,0,0,0.0325,0.0325,0,0.0327,0.0327,0.0327,0.0314,0.0313,0.0313,0.0312,0.0279,0.0278,0.0278,0,0,0,0,0,0,0,0,0,0,0,0,0,0.0301,0.0301,0.0325,0.0325,0.0325,0.0327,0.0327,0.0327,0.0314,0.0313,0.0313,0.0312,0.0279,0.0278,0.0278,0,0,0,0,0,0,0,0,0,0,0,0,0,0.0308,0.0301,0.0325,0.0319,0.0318,0.0327,0.0327,0.0327,0.0314,0.0313,0.0313,0.0312,0.0279,0.0278,0.0278,0.0283,0,0,0.0275,0.0275,0,0,0,0,0,0,0,0,0.0307,0.0309,0.032,0.0319,0.0319,0.032,0.0306,0.0311,0.0314,0.0315,0.0312,0.0312,0.029,0.0288,0.029,0.0282,0.028,0.0275,0.0274,0.0274,0.0274,0,0,0,0,0,0,0,0.0307,0.0308,0.0326,0.032,0.0319,0.0313,0.0314,0.0307,0.0305,0.0315,0.0314,0.0315,0.0289,0.0291,0.0289,0.028,0.0275,0.0274,0.0274,0.0273,0.029,0.0291,0,0,0,0,0,0,0.0308,0.0308,0.0326,0.0326,0.0312,0.0314,0.0315,0.032,0.0305,0.0303,0.0315,0.0314,0.0292,0.029,0.0288,0.0317,0.0274,0.0273,0.0273,0.0289,0.029,0.0291,0,0,0,0,0,0,0.0308,0.031,0.0326,0.0317,0.0318,0.0315,0.0321,0.032,0.0324,0.0306,0.0303,0.032,0.0292,0.0289,0.0289,0.0314,0.0273,0.0272,0.0288,0.029,0.0291,0.0361,0,0,0,0,0,0,0.0307,0.031,0.0313,0.0317,0.0319,0.0341,0.0322,0.0321,0.0325,0.0324,0.0309,0.0306,0.0291,0.029,0.0288,0.0313,0.0272,0.0287,0.0289,0.029,0.0357,0.0364,0.037,0,0,0,0,0,0.0307,0.0317,0.0314,0.0316,0.0324,0.0342,0.0343,0.0338,0.0326,0.0337,0.0324,0.0306,0.03,0.029,0.0288,0.0312,0.0286,0.0288,0.029,0.0354,0.0363,0.037,0,0,0,0,0,0,0.0307,0.0317,0.0313,0.0325,0.0336,0.034,0.0345,0.0343,0.0342,0.0336,0.0316,0.0312,0.0324,0.0307,0.0296,0.0322,0.0291,0.0293,0.0341,0.0349,0.0355,0.0374,0.0271,0,0,0,0,0,0.031,0.0322,0.0329,0.0341,0.0344,0.0345,0.035,0.035,0.035,0.0349,0.0337,0.0327,0.0331,0.033,0.0325,0.0337,0.0341,0.0351,0.0358,0.0364,0.0377,0.0428,0.0441,0.0298,0.0298,0.0298,0,0,0.0311,0.032,0.0325,0.0342,0.0345,0.0366,0.0347,0.036,0.0381,0.0345,0.036,0.0349,0.0339,0.0356,0.036,0.0344,0.0401,0.0366,0.0371,0.0382,0.0432,0.0446,0.0458,0.03,0.03,0.0299,0,0,0.0331,0.0331,0.0348,0.0361,0.0375,0.038,0.0387,0.0393,0.0398,0.0413,0.0397,0.0405,0.0397,0.0406,0.0407,0.0447,0.0435,0.0439,0.049,0.0539,0.0552,0.0563,0.0564,0.0575,0.0443,0.0443,0.0443,0,0.0333,0.0359,0.0357,0.0381,0.0397,0.0391,0.0419,0.0428,0.0435,0.0445,0.0426,0.0443,0.0429,0.0469,0.048,0.0465,0.0475,0.0461,0.055,0.0561,0.0572,0.0571,0.0582,0.0447,0.0446,0.0446,0.0446,0,0.0366,0.039,0.0402,0.0432,0.045,0.0474,0.0486,0.0498,0.0497,0.0507,0.0538,0.0528,0.0542,0.0539,0.052,0.0586,0.0561,0.0555,0.0534,0.0591,0.0585,0.0596,0.0452,0.0451,0.0449,0.0449,0,0,0.037,0.0418,0.0423,0.045,0.0481,0.0501,0.0534,0.0567,0.0596,0.06,0.065,0.0651,0.0645,0.0648,0.0634,0.0669,0.0736,0.0645,0.0646,0.0653,0.0819,0.0758,0.0762,0.0753,0.0756,0.0758,0.0777,0,0.04,0.0459,0.0475,0.0533,0.0564,0.0574,0.0606,0.0632,0.0654,0.0698,0.0703,0.074,0.0689,0.0708,0.0737,0.0759,0.077,0.0729,0.0756,0.0756,0.0703,0.0776,0.079,0.0806,0.0787,0.0789,0.079,0,0.0428,0.0468,0.0531,0.0589,0.0601,0.0633,0.0689,0.0718,0.0767,0.0785,0.0824,0.0835,0.0894,0.0841,0.0899,0.0879,0.0847,0.0843,0.0844,0.0775,0.0717,0.075,0.0826,0.0819,0.0806,0.0804,0.0803,0,0.0441,0.0507,0.0563,0.0584,0.0643,0.067,0.0695,0.0742,0.0786,0.0855,0.0915,0.0956,0.102,0.1009,0.0991,0.0961,0.1045,0.1003,0.0901,0.0894,0.0905,0.0895,0.0988,0.1019,0.1019,0.1019,0.1019,0,0.0473,0.0515,0.0572,0.0605,0.0657,0.0689,0.0753,0.0779,0.0858,0.0948,0.0966,0.1074,0.1076,0.1119,0.1051,0.1025,0.1092,0.0928,0.0914,0.0923,0.0915,0.0906,0.0886,0.102,0.102,0.102,0.102,0,0.0482,0.0522,0.0585,0.0652,0.0668,0.0703,0.0781,0.0834,0.0906,0.104,0.108,0.1202,0.1272,0.1224,0.1233,0.1126,0.1073,0.103,0.1012,0.0995,0.0869,0.0851,0.0911,0.0919,0.0935,0.0934,0.0933,0,0.0494,0.0532,0.0608,0.0638,0.0669,0.0724,0.0764,0.0838,0.0923,0.1135,0.1222,0.134,0.1454,0.1419,0.1262,0.1125,0.1077,0.0996,0.0931,0.0887,0.0859,0.0853,0.0856,0.0964,0.0964,0.0963,0.0963,0,0.0521,0.0548,0.0599,0.066,0.0711,0.078,0.0863,0.0949,0.1084,0.1238,0.1479,0.16,0.1573,0.1505,0.1278,0.116,0.1011,0.0977,0.0978,0.0933,0.0894,0.0886,0.0888,0.0959,0.0959,0.096,0.096,0.096,0.0532,0.057,0.0638,0.0692,0.0751,0.0863,0.0968,0.1104,0.1293,0.1558,0.1642,0.1827,0.1686,0.1419,0.1267,0.0978,0.0982,0.0883,0.0875,0.088,0.0874,0.0829,0.0851,0.085,0.085,0.085,0.085,0,0.0552,0.0601,0.0662,0.0756,0.084,0.0872,0.1056,0.1199,0.1469,0.1656,0.1862,0.1872,0.1705,0.1465,0.1092,0.0927,0.0884,0.0846,0.0882,0.0896,0.091,0.0897,0.0875,0.0875,0.0875,0.0875,0.0875,0.0875,0.0567,0.0632,0.0674,0.082,0.0897,0.1077,0.1214,0.1425,0.16,0.1844,0.1929,0.1982,0.186,0.1328,0.1027,0.0941,0.0907,0.084,0.0835,0.0869,0.0874,0.0878,0.0864,0.0836,0.0836,0.0858,0.0858,0.0858]}],[{"header":{"parameterUnit":"m.s-1","parameterCategory":2,"la1":30.2991,"la2":30.254,"lo1":-89.0895,"lo2":-89.0444,"dy":0.0017,"dx":0.0017,"nx":28,"ny":28,"refTime":"2023-03-16T21:00:00:Z","depth":"2","parameterNumber":2,"parameterNumberName":"U-component_of_CURRENTS"},"data":[0,0,0,0,0,0,0,0,0,0,0,0,0,0,0,0,0,0,0,0,0,0,0,0,0,0,0,0,0,0,0,0,0,0,0,0,0,0,0,0,0,0,0,0,0,0,0,0,0,0,0,0,0,0,0,0,0,0,0.2187,0.2186,0,0.2181,0.2182,0.2182,0.2201,0.2201,0.22,0.22,0.2193,0.2193,0.2193,0,0,0,0,0,0,0,0,0,0,0,0,0,0.2263,0.2262,0.2187,0.2186,0.2185,0.2181,0.2182,0.2183,0.2201,0.2201,0.22,0.22,0.2193,0.2193,0.2193,0,0,0,0,0,0,0,0,0,0,0,0,0,0.2249,0.2262,0.2187,0.2187,0.2186,0.2181,0.2182,0.2183,0.2201,0.2201,0.22,0.22,0.2193,0.2193,0.2193,0.2202,0,0,0.2193,0.2193,0,0,0,0,0,0,0,0,0.225,0.2248,0.2188,0.2187,0.2186,0.2183,0.2206,0.2186,0.2201,0.2205,0.22,0.22,0.2184,0.2185,0.2197,0.2201,0.2201,0.2193,0.2193,0.2193,0.2193,0,0,0,0,0,0,0,0.2251,0.2248,0.2194,0.2187,0.2185,0.2204,0.2202,0.2203,0.2204,0.2205,0.2204,0.2189,0.2185,0.2197,0.2197,0.2201,0.2193,0.2193,0.2193,0.2193,0.2277,0.2279,0,0,0,0,0,0,0.2231,0.2249,0.2194,0.2192,0.2208,0.2202,0.22,0.2192,0.2204,0.2202,0.2189,0.219,0.2197,0.2197,0.2197,0.2274,0.2193,0.2193,0.2193,0.2275,0.2277,0.228,0,0,0,0,0,0,0.2233,0.2227,0.2194,0.2213,0.2209,0.22,0.2191,0.2192,0.2225,0.219,0.2191,0.2222,0.2197,0.2197,0.2208,0.2271,0.2193,0.2194,0.2272,0.2276,0.2279,0.2384,0,0,0,0,0,0,0.2235,0.2228,0.2231,0.2212,0.2207,0.2203,0.219,0.2192,0.221,0.2212,0.2218,0.2216,0.2197,0.2208,0.2208,0.2269,0.2194,0.2269,0.2274,0.2278,0.2378,0.2391,0.2401,0,0,0,0,0,0.2238,0.2241,0.2231,0.2225,0.2206,0.2202,0.2204,0.2202,0.2212,0.2232,0.2231,0.2217,0.2235,0.2209,0.2209,0.2272,0.2267,0.2273,0.2277,0.2373,0.2388,0.2401,0,0,0,0,0,0,0.2282,0.2242,0.2231,0.2223,0.2216,0.2202,0.2219,0.222,0.224,0.2244,0.2229,0.2227,0.227,0.225,0.2222,0.2309,0.2256,0.2261,0.2329,0.2343,0.2355,0.234,0.2194,0,0,0,0,0,0.2287,0.228,0.2248,0.2247,0.2246,0.2242,0.2246,0.224,0.2241,0.2252,0.2257,0.2266,0.229,0.2296,0.2305,0.2339,0.2352,0.2384,0.2396,0.2406,0.2394,0.2473,0.2491,0.2296,0.2296,0.2296,0,0,0.23,0.2279,0.2274,0.2255,0.2257,0.2261,0.2248,0.2256,0.2266,0.2246,0.2285,0.2307,0.2308,0.2353,0.2372,0.2343,0.2476,0.2412,0.2421,0.2403,0.248,0.2499,0.2516,0.2299,0.2298,0.2298,0,0,0.2312,0.2311,0.2303,0.2312,0.23,0.2291,0.23,0.2301,0.2313,0.2343,0.2344,0.2394,0.242,0.2438,0.2449,0.2528,0.2539,0.2549,0.2594,0.2672,0.2688,0.2703,0.2779,0.2799,0.2552,0.2552,0.2552,0,0.2322,0.2311,0.2306,0.2315,0.2317,0.2311,0.2314,0.2331,0.2338,0.2366,0.2366,0.246,0.2463,0.2527,0.2557,0.2558,0.26,0.2542,0.2688,0.2703,0.2716,0.2789,0.281,0.2558,0.2557,0.2557,0.2556,0,0.2333,0.2334,0.2343,0.2341,0.2352,0.2359,0.2362,0.2392,0.2417,0.2444,0.2528,0.2547,0.2604,0.2633,0.2617,0.2721,0.2723,0.27,0.2653,0.2742,0.2814,0.2834,0.2566,0.2564,0.2562,0.2561,0,0,0.232,0.2334,0.2343,0.2342,0.2365,0.2366,0.2405,0.2433,0.2477,0.2535,0.2604,0.2676,0.2717,0.273,0.2741,0.28,0.2946,0.2792,0.2793,0.2867,0.3134,0.2897,0.2897,0.296,0.2963,0.2965,0.3159,0,0.232,0.2317,0.2339,0.2357,0.2348,0.2387,0.243,0.2474,0.252,0.2595,0.2663,0.2741,0.2745,0.279,0.2857,0.2922,0.2998,0.2895,0.3033,0.3037,0.2816,0.291,0.2649,0.2777,0.3178,0.3182,0.3184,0,0.2319,0.231,0.2318,0.2341,0.2351,0.239,0.2455,0.2491,0.2603,0.2648,0.275,0.2807,0.2924,0.2898,0.3082,0.3024,0.3085,0.3129,0.3137,0.2881,0.2835,0.2746,0.2798,0.3217,0.3214,0.3212,0.321,0,0.2286,0.2295,0.2294,0.2312,0.2355,0.2399,0.2436,0.2535,0.2576,0.2698,0.2771,0.29,0.2991,0.3093,0.3173,0.3164,0.3341,0.3346,0.3197,0.3184,0.2961,0.2918,0.3469,0.3468,0.3468,0.3467,0.3467,0,0.2264,0.2268,0.2291,0.2311,0.2356,0.2391,0.2465,0.2534,0.2621,0.2713,0.2814,0.2921,0.3048,0.3153,0.3216,0.3247,0.3394,0.3211,0.3212,0.2989,0.2949,0.331,0.3289,0.3475,0.3473,0.3472,0.347,0,0.2228,0.2251,0.2273,0.2326,0.2354,0.2404,0.2484,0.2507,0.2627,0.2745,0.2798,0.2979,0.3128,0.3187,0.3348,0.329,0.334,0.3305,0.3014,0.2971,0.3143,0.3126,0.3221,0.3215,0.3209,0.3204,0.32,0,0.2205,0.2205,0.229,0.2325,0.2366,0.2419,0.244,0.252,0.2547,0.2799,0.2851,0.3034,0.3093,0.3184,0.3138,0.314,0.3254,0.2861,0.2762,0.3124,0.3118,0.3109,0.31,0.2567,0.2558,0.2551,0.2545,0,0.2156,0.2211,0.2229,0.2303,0.2353,0.2377,0.2426,0.2456,0.2576,0.2671,0.2844,0.2915,0.2984,0.2838,0.2751,0.2737,0.2823,0.2706,0.3214,0.2605,0.2504,0.2497,0.2512,0.248,0.2487,0.2492,0.2495,0.2498,0.213,0.217,0.2216,0.2272,0.2314,0.2349,0.2365,0.237,0.2437,0.2524,0.2691,0.2664,0.2628,0.237,0.2286,0.2226,0.2453,0.2327,0.2353,0.2386,0.2211,0.2096,0.1968,0.1972,0.1975,0.1977,0.198,0,0.209,0.2137,0.2164,0.2255,0.2247,0.2335,0.2338,0.2281,0.2306,0.2312,0.2339,0.2068,0.1907,0.1914,0.1717,0.165,0.1689,0.1573,0.163,0.1693,0.175,0.1546,0.1126,0.1124,0.1122,0.1119,0,0,0.2093,0.2108,0.2124,0.2145,0.2231,0.2206,0.2227,0.2133,0.2052,0.1899,0.18,0.1816,0.1839,0.1471,0.139,0.1242,0.1473,0.1178,0.1861,0.1994,0.2049,0.2174,0.1926,0,0,0,0,0]},{"header":{"parameterUnit":"m.s-1","parameterCategory":2,"la1":30.2991,"la2":30.254,"lo1":-89.0895,"lo2":-89.0444,"dy":0.0017,"dx":0.0017,"nx":28,"ny":28,"refTime":"2023-03-16T21:00:00:Z","depth":"2","parameterNumber":3,"parameterNumberName":"V-component_of_CURRENTS"},"data":[0,0,0,0,0,0,0,0,0,0,0,0,0,0,0,0,0,0,0,0,0,0,0,0,0,0,0,0,0,0,0,0,0,0,0,0,0,0,0,0,0,0,0,0,0,0,0,0,0,0,0,0,0,0,0,0,0,0,0.0105,0.0104,0,0.0113,0.0113,0.0114,0.0127,0.0127,0.0127,0.0126,0.011,0.011,0.011,0,0,0,0,0,0,0,0,0,0,0,0,0,0.0116,0.0116,0.0105,0.0104,0.0104,0.0113,0.0113,0.0114,0.0127,0.0127,0.0127,0.0126,0.011,0.011,0.011,0,0,0,0,0,0,0,0,0,0,0,0,0,0.0121,0.0116,0.0105,0.0108,0.0108,0.0112,0.0113,0.0114,0.0127,0.0127,0.0126,0.0126,0.011,0.011,0.011,0.0114,0,0,0.0109,0.0109,0,0,0,0,0,0,0,0,0.0121,0.0121,0.0108,0.0108,0.0108,0.0114,0.0111,0.0111,0.0127,0.0125,0.0126,0.0126,0.0106,0.0106,0.0116,0.0113,0.0113,0.0109,0.0109,0.0108,0.0108,0,0,0,0,0,0,0,0.012,0.0121,0.0113,0.0107,0.0107,0.0114,0.0115,0.0112,0.0121,0.0125,0.0125,0.0118,0.0107,0.0116,0.0116,0.0112,0.0109,0.0108,0.0108,0.0108,0.0124,0.0125,0,0,0,0,0,0,0.0109,0.0121,0.0113,0.0113,0.0108,0.0113,0.0114,0.0117,0.0121,0.0121,0.0118,0.0118,0.0117,0.0116,0.0115,0.0129,0.0108,0.0108,0.0108,0.0124,0.0125,0.0125,0,0,0,0,0,0,0.0109,0.0109,0.0112,0.0112,0.0113,0.0113,0.0115,0.0117,0.013,0.0115,0.0115,0.0129,0.0117,0.0115,0.0116,0.0128,0.0108,0.0108,0.0123,0.0124,0.0125,0.015,0,0,0,0,0,0,0.011,0.0109,0.0111,0.0112,0.0112,0.0119,0.0115,0.0117,0.0123,0.0124,0.0125,0.0123,0.0116,0.0117,0.0116,0.0127,0.0107,0.0122,0.0124,0.0125,0.0149,0.0152,0.0155,0,0,0,0,0,0.011,0.0114,0.0111,0.011,0.0113,0.0119,0.0121,0.0122,0.0124,0.0133,0.0132,0.0123,0.0124,0.0117,0.0116,0.0127,0.0122,0.0123,0.0125,0.0147,0.0151,0.0155,0,0,0,0,0,0,0.0118,0.0115,0.0112,0.0114,0.0116,0.0119,0.0125,0.0127,0.0136,0.0136,0.0128,0.0127,0.0134,0.0127,0.012,0.0136,0.0123,0.0124,0.014,0.0144,0.0147,0.0174,0.0107,0,0,0,0,0,0.0119,0.0125,0.012,0.0122,0.0123,0.0126,0.0129,0.013,0.0133,0.0138,0.0139,0.0138,0.014,0.0138,0.0139,0.0145,0.016,0.0152,0.0156,0.0158,0.018,0.0212,0.022,0.013,0.013,0.013,0,0,0.0118,0.012,0.012,0.0124,0.0128,0.0137,0.013,0.0135,0.0144,0.0133,0.015,0.0149,0.0144,0.0154,0.0156,0.0148,0.0189,0.016,0.0162,0.0183,0.0214,0.0223,0.0231,0.0131,0.0131,0.0131,0,0,0.0127,0.0126,0.0136,0.0143,0.0145,0.0146,0.0148,0.0156,0.016,0.0173,0.0167,0.0179,0.0179,0.0184,0.0184,0.0206,0.0206,0.0198,0.0233,0.0263,0.0271,0.0279,0.0299,0.0308,0.0198,0.0198,0.0198,0,0.0127,0.014,0.0139,0.0155,0.0161,0.0152,0.0166,0.017,0.0177,0.0186,0.0182,0.0212,0.0202,0.0222,0.0228,0.0215,0.0228,0.0217,0.0269,0.0276,0.0283,0.0302,0.0312,0.0199,0.0199,0.0199,0.0199,0,0.0148,0.0159,0.0167,0.0185,0.0192,0.0202,0.0201,0.021,0.0215,0.0223,0.0252,0.0253,0.0277,0.0268,0.0254,0.0294,0.0285,0.0269,0.026,0.0294,0.0311,0.0321,0.0201,0.0201,0.02,0.02,0,0,0.0151,0.0175,0.0182,0.0194,0.0209,0.0217,0.023,0.0244,0.0262,0.0279,0.0323,0.0325,0.0339,0.0342,0.033,0.0351,0.0399,0.0333,0.0333,0.0356,0.0463,0.0399,0.0402,0.039,0.0392,0.0394,0.0451,0,0.0169,0.0201,0.021,0.0239,0.0253,0.0256,0.0269,0.0282,0.0298,0.0338,0.0354,0.039,0.036,0.0382,0.04,0.0417,0.0427,0.0385,0.0426,0.0427,0.0368,0.0413,0.042,0.0467,0.0461,0.0462,0.0463,0,0.0194,0.0211,0.0242,0.0265,0.0272,0.0288,0.0318,0.0328,0.0369,0.0386,0.0434,0.0458,0.0513,0.0476,0.0531,0.0507,0.0487,0.0486,0.0488,0.0432,0.0381,0.0434,0.0484,0.0479,0.0478,0.0477,0.0476,0,0.0206,0.0236,0.026,0.0272,0.0295,0.0311,0.032,0.035,0.0374,0.0434,0.049,0.0537,0.0611,0.06,0.0604,0.0577,0.0656,0.0617,0.0534,0.0529,0.0547,0.0539,0.0635,0.0635,0.0635,0.0634,0.0634,0,0.0226,0.0248,0.0268,0.0288,0.0311,0.0325,0.0359,0.0373,0.0429,0.0512,0.0525,0.0639,0.0652,0.0701,0.065,0.0639,0.0694,0.0562,0.0548,0.0552,0.0544,0.0563,0.0554,0.0636,0.0636,0.0636,0.0635,0,0.0239,0.0256,0.0285,0.0313,0.032,0.034,0.0378,0.0409,0.0459,0.0584,0.0623,0.0751,0.0839,0.0798,0.0821,0.0726,0.0689,0.0648,0.0643,0.0627,0.0528,0.052,0.0588,0.0587,0.0585,0.0584,0.0583,0,0.0251,0.027,0.0302,0.0311,0.0326,0.0351,0.0371,0.0416,0.0486,0.0686,0.0779,0.0904,0.1021,0.0992,0.087,0.075,0.0712,0.0622,0.0558,0.0548,0.0528,0.0522,0.0516,0.0598,0.0597,0.0597,0.0596,0,0.0271,0.0284,0.0298,0.0318,0.0345,0.039,0.0452,0.0533,0.0655,0.0813,0.1075,0.1185,0.1161,0.1098,0.087,0.0775,0.0638,0.0602,0.0642,0.0583,0.0555,0.0535,0.053,0.0591,0.0591,0.0592,0.0592,0.0592,0.0278,0.0286,0.0303,0.0321,0.0358,0.0467,0.0584,0.0709,0.0914,0.118,0.1259,0.1395,0.1247,0.0992,0.0814,0.0604,0.0634,0.0523,0.0528,0.0532,0.0497,0.0465,0.0479,0.0479,0.0479,0.0478,0.0478,0,0.0287,0.0292,0.0301,0.0363,0.0433,0.046,0.0666,0.0834,0.1163,0.1284,0.1482,0.1322,0.1199,0.0993,0.0694,0.05,0.0493,0.0415,0.0457,0.0465,0.0472,0.0434,0.0399,0.0398,0.0397,0.0396,0,0,0.0289,0.03,0.0302,0.0419,0.0488,0.0709,0.0882,0.1126,0.1282,0.1459,0.1487,0.1466,0.1239,0.0978,0.0751,0.0581,0.0553,0.053,0.0619,0.0707,0.0714,0.0565,0.0519,0,0,0,0,0]}],[{"header":{"parameterUnit":"m.s-1","parameterCategory":2,"la1":30.2991,"la2":30.254,"lo1":-89.0895,"lo2":-89.0444,"dy":0.0017,"dx":0.0017,"nx":28,"ny":28,"refTime":"2023-03-16T21:00:00:Z","depth":"4","parameterNumber":2,"parameterNumberName":"U-component_of_CURRENTS"},"data":[0,0,0,0,0,0,0,0,0,0,0,0,0,0,0,0,0,0,0,0,0,0,0,0,0,0,0,0,0,0,0,0,0,0,0,0,0,0,0,0,0,0,0,0,0,0,0,0,0,0,0,0,0,0,0,0,0,0,0.1021,0.1021,0,0.1023,0.1023,0.1023,0.105,0.1051,0.1051,0.1052,0.1129,0.113,0.1132,0,0,0,0,0,0,0,0,0,0,0,0,0,0.1073,0.1072,0.1021,0.1021,0.1021,0.1023,0.1023,0.1023,0.105,0.1051,0.1051,0.1052,0.1128,0.113,0.1132,0,0,0,0,0,0,0,0,0,0,0,0,0,0.1062,0.1071,0.1021,0.1033,0.1034,0.1023,0.1023,0.1024,0.105,0.1051,0.1052,0.1052,0.1128,0.113,0.1132,0.113,0,0,0.1139,0.114,0,0,0,0,0,0,0,0,0.1062,0.106,0.1031,0.1032,0.1033,0.1036,0.107,0.1062,0.105,0.1045,0.1052,0.1053,0.1103,0.1107,0.1107,0.1134,0.1137,0.1139,0.1141,0.1142,0.1142,0,0,0,0,0,0,0,0.1063,0.106,0.1023,0.1031,0.1032,0.105,0.1049,0.1068,0.1072,0.1046,0.1047,0.1045,0.1104,0.1105,0.1109,0.1138,0.1139,0.1141,0.1143,0.1144,0.1254,0.1255,0,0,0,0,0,0,0.1057,0.106,0.1023,0.1023,0.1048,0.1048,0.1047,0.1035,0.107,0.1075,0.1044,0.1046,0.11,0.1106,0.1112,0.1156,0.1142,0.1144,0.1145,0.1252,0.1254,0.1256,0,0,0,0,0,0,0.1058,0.1053,0.1023,0.1042,0.1039,0.1046,0.1033,0.1035,0.1064,0.1068,0.1075,0.1074,0.1101,0.1109,0.1155,0.1158,0.1145,0.1147,0.125,0.1253,0.1255,0.1217,0,0,0,0,0,0,0.1059,0.1053,0.1057,0.1041,0.1037,0.1037,0.1032,0.1034,0.1058,0.1062,0.1095,0.1101,0.1102,0.1151,0.1157,0.1161,0.1149,0.1248,0.1251,0.1254,0.1216,0.1217,0.1218,0,0,0,0,0,0.1061,0.1054,0.1057,0.1054,0.1038,0.1038,0.1039,0.1048,0.106,0.1077,0.11,0.1102,0.1174,0.1154,0.116,0.1165,0.1247,0.1251,0.1254,0.1215,0.1217,0.1218,0,0,0,0,0,0,0.1079,0.1055,0.1059,0.1046,0.1054,0.1042,0.1059,0.1065,0.1095,0.111,0.1118,0.1125,0.117,0.1183,0.1162,0.1211,0.1213,0.1217,0.1181,0.1183,0.1184,0.1237,0.1151,0,0,0,0,0,0.1083,0.1078,0.1064,0.1063,0.1067,0.1072,0.1079,0.1086,0.11,0.1115,0.1136,0.1164,0.1184,0.1197,0.1226,0.1247,0.1283,0.126,0.1262,0.1262,0.1314,0.1364,0.1374,0.1267,0.1267,0.1267,0,0,0.1087,0.108,0.1075,0.1069,0.1077,0.1076,0.108,0.1099,0.1103,0.112,0.1152,0.1178,0.1197,0.1221,0.1241,0.1232,0.1303,0.1267,0.1266,0.1319,0.1369,0.1379,0.1388,0.1269,0.1269,0.1268,0,0,0.1088,0.1093,0.1086,0.109,0.1104,0.1107,0.1119,0.1128,0.1142,0.1175,0.1182,0.1223,0.1254,0.126,0.1265,0.13,0.1316,0.1304,0.1338,0.1383,0.1393,0.1402,0.1412,0.1423,0.1291,0.1291,0.1291,0,0.11,0.108,0.109,0.1085,0.1088,0.1122,0.1118,0.1133,0.1158,0.1178,0.1194,0.1264,0.1275,0.1294,0.1309,0.1302,0.1329,0.1314,0.1383,0.1393,0.1403,0.1413,0.1425,0.129,0.129,0.129,0.129,0,0.1083,0.1078,0.1081,0.1082,0.1092,0.1103,0.1115,0.1143,0.1178,0.12,0.1262,0.1289,0.1333,0.1329,0.1334,0.1394,0.1388,0.138,0.1371,0.1411,0.1419,0.1431,0.1288,0.1288,0.1289,0.1289,0,0,0.108,0.1068,0.1072,0.1056,0.1091,0.1083,0.1116,0.1143,0.1159,0.1229,0.1268,0.132,0.1368,0.1385,0.1385,0.1436,0.1498,0.145,0.1453,0.1448,0.159,0.1468,0.147,0.1501,0.1504,0.1507,0.1549,0,0.107,0.1042,0.105,0.1035,0.1019,0.1057,0.1075,0.1114,0.1162,0.1214,0.129,0.1347,0.1371,0.14,0.1454,0.1506,0.1542,0.1488,0.1569,0.1571,0.1447,0.1485,0.1517,0.1559,0.1562,0.1564,0.1565,0,0.1041,0.1028,0.1001,0.0985,0.0986,0.0996,0.1028,0.1048,0.1142,0.1191,0.1287,0.1356,0.1461,0.1474,0.1598,0.1567,0.1599,0.1633,0.1633,0.1561,0.1476,0.1527,0.1589,0.1587,0.1585,0.1584,0.1582,0,0.1,0.0984,0.0956,0.0951,0.0954,0.0964,0.0993,0.106,0.1086,0.1207,0.1271,0.1386,0.1471,0.1559,0.1658,0.1638,0.1793,0.1744,0.1656,0.1645,0.1757,0.1748,0.1839,0.1839,0.1839,0.1839,0.1839,0,0.0954,0.0935,0.0934,0.0912,0.0884,0.0928,0.0933,0.0976,0.1083,0.1135,0.1273,0.1342,0.1514,0.1619,0.1679,0.1719,0.1801,0.1695,0.1666,0.1732,0.172,0.1762,0.1753,0.184,0.184,0.184,0.1839,0,0.0889,0.0896,0.0842,0.0846,0.085,0.0831,0.0887,0.0902,0.103,0.111,0.1176,0.1352,0.1484,0.1613,0.1751,0.1725,0.1781,0.1766,0.1835,0.1803,0.1587,0.1575,0.1651,0.1648,0.1645,0.1642,0.164,0,0.0845,0.082,0.0772,0.0716,0.0715,0.0715,0.0728,0.0858,0.0899,0.1096,0.114,0.1324,0.1427,0.1538,0.1656,0.1741,0.1731,0.1729,0.167,0.1613,0.1577,0.157,0.1563,0.1635,0.1635,0.1634,0.1633,0,0.0761,0.0749,0.068,0.0579,0.0557,0.0538,0.0592,0.0639,0.0814,0.0945,0.1102,0.1217,0.1346,0.1468,0.1559,0.1611,0.1719,0.1696,0.1702,0.1646,0.1594,0.156,0.1556,0.1623,0.1624,0.1625,0.1626,0,0.0682,0.0595,0.0503,0.0395,0.0376,0.038,0.0425,0.0527,0.0625,0.0905,0.0943,0.1158,0.1323,0.1398,0.1478,0.1532,0.1497,0.1449,0.1467,0.1479,0.1408,0.1316,0.1258,0,0,0,0,0,0.0604,0.0468,0.0332,0.0229,0.023,0.0244,0.0332,0.0417,0.0638,0.0723,0.0848,0.0979,0.1136,0.1236,0.1258,0.1355,0.1468,0.1368,0.141,0.1564,0.1577,0.1511,0,0,0,0,0,0,0.0521,0.0391,0.0273,0.0142,0.0091,0.0121,0.0197,0.034,0.0411,0.0637,0.0736,0.0898,0.1063,0.1126,0.1237,0.1264,0.1265,0.1498,0.1495,0.1558,0.1569,0.1578,0.1515,0,0,0,0,0]},{"header":{"parameterUnit":"m.s-1","parameterCategory":2,"la1":30.2991,"la2":30.254,"lo1":-89.0895,"lo2":-89.0444,"dy":0.0017,"dx":0.0017,"nx":28,"ny":28,"refTime":"2023-03-16T21:00:00:Z","depth":"4","parameterNumber":3,"parameterNumberName":"V-component_of_CURRENTS"},"data":[0,0,0,0,0,0,0,0,0,0,0,0,0,0,0,0,0,0,0,0,0,0,0,0,0,0,0,0,0,0,0,0,0,0,0,0,0,0,0,0,0,0,0,0,0,0,0,0,0,0,0,0,0,0,0,0,0,0,0.005,0.005,0,0.0055,0.0055,0.0055,0.0061,0.0061,0.0061,0.0061,0.0062,0.0062,0.0062,0,0,0,0,0,0,0,0,0,0,0,0,0,0.0045,0.0046,0.005,0.005,0.005,0.0055,0.0055,0.0055,0.0061,0.0061,0.0061,0.0061,0.0062,0.0062,0.0062,0,0,0,0,0,0,0,0,0,0,0,0,0,0.005,0.0046,0.005,0.0052,0.0052,0.0055,0.0055,0.0055,0.0061,0.0061,0.0061,0.0061,0.0062,0.0062,0.0062,0.0064,0,0,0.0063,0.0063,0,0,0,0,0,0,0,0,0.005,0.005,0.0052,0.0052,0.0052,0.0056,0.0054,0.0058,0.0061,0.0059,0.0061,0.006,0.0059,0.0059,0.0062,0.0064,0.0064,0.0063,0.0063,0.0063,0.0063,0,0,0,0,0,0,0,0.0049,0.005,0.0053,0.0052,0.0052,0.0053,0.0054,0.0055,0.006,0.0059,0.0059,0.0058,0.0059,0.0062,0.0062,0.0064,0.0063,0.0063,0.0063,0.0063,0.0069,0.0069,0,0,0,0,0,0,0.0046,0.005,0.0053,0.0053,0.0049,0.0053,0.0054,0.0056,0.006,0.006,0.0058,0.0058,0.0062,0.0062,0.0062,0.0074,0.0063,0.0063,0.0063,0.0069,0.0069,0.0069,0,0,0,0,0,0,0.0046,0.0047,0.0053,0.005,0.0051,0.0053,0.0055,0.0056,0.006,0.0059,0.0059,0.0061,0.0062,0.0062,0.0064,0.0073,0.0063,0.0063,0.0069,0.0069,0.0069,0.0091,0,0,0,0,0,0,0.0046,0.0047,0.0047,0.005,0.0051,0.0055,0.0055,0.0056,0.0058,0.0059,0.0062,0.0062,0.0062,0.0064,0.0064,0.0073,0.0063,0.0069,0.0069,0.0069,0.009,0.0091,0.0093,0,0,0,0,0,0.0046,0.0048,0.0047,0.0047,0.0052,0.0055,0.0056,0.0058,0.0059,0.0061,0.0063,0.0062,0.0066,0.0064,0.0065,0.0074,0.0069,0.0069,0.0069,0.0089,0.0091,0.0093,0,0,0,0,0,0,0.0043,0.0048,0.0048,0.005,0.0052,0.0056,0.0057,0.0059,0.0063,0.0063,0.0063,0.0064,0.0068,0.0066,0.0065,0.0075,0.0067,0.0067,0.0082,0.0084,0.0085,0.0098,0.0063,0,0,0,0,0,0.0043,0.0049,0.0049,0.0052,0.0052,0.0055,0.0057,0.0059,0.0061,0.0063,0.0065,0.0067,0.0069,0.0072,0.0071,0.0079,0.007,0.0084,0.0086,0.0087,0.0097,0.0088,0.009,0.007,0.007,0.007,0,0,0.004,0.0046,0.0047,0.0052,0.0054,0.0064,0.0057,0.006,0.0072,0.0063,0.0077,0.007,0.007,0.0078,0.008,0.0079,0.0085,0.0087,0.0089,0.0098,0.0089,0.0091,0.0092,0.007,0.007,0.007,0,0,0.0046,0.0045,0.0054,0.0059,0.0064,0.0067,0.0068,0.0073,0.0078,0.0086,0.0083,0.0083,0.0086,0.0091,0.0094,0.0103,0.0091,0.01,0.0124,0.0115,0.0117,0.0118,0.0099,0.0098,0.0105,0.0105,0.0105,0,0.0043,0.006,0.0055,0.0069,0.0081,0.0071,0.0089,0.009,0.0095,0.0106,0.0092,0.0103,0.0095,0.0116,0.0116,0.0109,0.0096,0.0118,0.0118,0.0119,0.012,0.01,0.0099,0.0106,0.0106,0.0106,0.0106,0,0.0059,0.0074,0.008,0.0099,0.0107,0.0119,0.0123,0.013,0.0131,0.0135,0.0147,0.0134,0.0145,0.0137,0.0129,0.014,0.0124,0.0117,0.0114,0.0124,0.0101,0.01,0.0107,0.0107,0.0107,0.0106,0,0,0.0057,0.0087,0.0091,0.0119,0.0129,0.0146,0.0159,0.018,0.0208,0.019,0.0219,0.0205,0.0196,0.0198,0.0185,0.0173,0.0159,0.015,0.0149,0.0134,0.0129,0.0137,0.0136,0.015,0.015,0.015,0.0106,0,0.0076,0.0116,0.0125,0.0172,0.0197,0.0203,0.0227,0.0242,0.0247,0.0267,0.0244,0.0262,0.022,0.0231,0.0208,0.0177,0.0159,0.0171,0.0121,0.0119,0.0128,0.0137,0.0151,0.0105,0.0105,0.0105,0.0105,0,0.0092,0.0125,0.0172,0.0236,0.0248,0.0274,0.0327,0.0351,0.0362,0.0365,0.036,0.034,0.0322,0.0285,0.0226,0.0235,0.0185,0.015,0.0148,0.0151,0.0126,0.0096,0.0102,0.0103,0.0103,0.0103,0.0103,0,0.011,0.0164,0.0211,0.0228,0.0285,0.0319,0.0355,0.0383,0.0427,0.0433,0.0451,0.0415,0.0407,0.034,0.0256,0.0242,0.0185,0.0159,0.0117,0.0116,0.0112,0.0111,0.0119,0.0119,0.0119,0.0119,0.0119,0,0.0134,0.0176,0.0229,0.0259,0.0344,0.0363,0.0454,0.0474,0.0513,0.0559,0.0511,0.0519,0.042,0.0369,0.0281,0.02,0.0204,0.0128,0.0112,0.0119,0.012,0.011,0.011,0.0118,0.0118,0.0118,0.0119,0,0.0145,0.0174,0.0243,0.0318,0.0357,0.0419,0.0535,0.06,0.061,0.0663,0.0666,0.0606,0.0529,0.0431,0.0322,0.0247,0.0165,0.0135,0.0153,0.0138,0.0089,0.009,0.0079,0.0079,0.0079,0.0079,0.0079,0,0.0156,0.0187,0.0292,0.0361,0.0404,0.0508,0.0595,0.0652,0.0701,0.0708,0.0722,0.0664,0.0607,0.0462,0.0346,0.0199,0.0172,0.0127,0.0101,0.0102,0.0088,0.0089,0.009,0.0079,0.0079,0.0079,0.0079,0,0.0184,0.0213,0.0276,0.0409,0.0516,0.0629,0.0727,0.0768,0.0809,0.0825,0.0775,0.0689,0.0601,0.0462,0.0362,0.0248,0.0156,0.0127,0.0125,0.01,0.0102,0.0088,0.0089,0.008,0.008,0.008,0.008,0,0.0206,0.0259,0.0343,0.0461,0.059,0.0686,0.0751,0.0802,0.0851,0.0831,0.0812,0.0705,0.0644,0.0487,0.0388,0.029,0.0246,0.0199,0.0192,0.0191,0.0234,0.0254,0.0273,0,0,0,0,0,0.0228,0.0292,0.0401,0.0528,0.0643,0.0712,0.0811,0.0854,0.0883,0.0861,0.0833,0.0745,0.0583,0.0508,0.0411,0.0375,0.0228,0.0257,0.017,0.0081,0.008,0.0113,0,0,0,0,0,0,0.0256,0.0342,0.0396,0.0538,0.063,0.076,0.082,0.0846,0.0821,0.0823,0.0742,0.0709,0.0558,0.0637,0.0403,0.0374,0.0302,0.0188,0.0186,0.0081,0.008,0.008,0.0113,0,0,0,0,0]}]]